Location: Sungai Jaoh
(2.9167°N, 113.9167°E)
Time: 16:05:46
(UTC+00:00)

Delta 168 - Pass Details

Date: 30 November 2020
Orbit: 394 x 2047 km, 25.3° (Epoch: 26 January)

Event Time Altitude Azimuth Distance (km) Brightness Sun altitude
Rises 21:34:46 0° 238° (WSW) 3,946 6.8 -10.0°
Reaches altitude 10° 21:38:07 10° 234° (SW) 2,688 6.0 -9.3°
Maximum altitude 21:44:13 59° 156° (SSE) 796 3.9 -7.8°
Drops below altitude 10° 21:48:18 10° 75° (ENE) 1,817 6.4 -6.9°
Sets 21:50:12 0° 71° (ENE) 2,568 7.1 -6.4°
